sat.trackr.live / text

‹ back to catalog

LEMUR-2-MARACHE-FRAN

NORAD 63262 · 2025-052BE

PAYLOAD ACTIVE UNKNOWN

§ Identity

Operator
Country
US
Launch date
2025-03-15
Launch site
AFWTR
Launch vehicle
Mass (kg)
RCS (m²)

Purposes: earth_obs

External: N2YO · Heavens-Above · Gunter

§ Orbital elements

Epoch: 2026-09-19T03:59:04.215264Z

Period
95.95 min
Inclination
97.6652°
Eccentricity
0.0011262
Mean motion
15.00781671 rev/d
Perigee alt
556.7 km
Apogee alt
572.3 km
Semi-major
6,942.6 km
B*
2.6020e-4
RAAN
154.6087°
Arg perigee
51.1724°
Mean anomaly
309.0504°
Rev number
8,285

§ Raw data

LEMUR-2-MARACHE-FRAN1 63262U 25052BE  26262.16602101  .00003247  00000+0  26020-3 0  99962 63262  97.6652 154.6087 0011262  51.1724 309.0504 15.00781671 82859

JSON: /api/v1/satellites/63262 · /tle

For live sub-satellite position, see the globe view (requires WebGL).

§ Visibility from observer

Set your observer location to see the next 7 days of passes ≥ 10°. The values pass through the URL so the page stays shareable.

No JS? Fill the form by hand. The geolocation button needs JavaScript.